sat.trackr.live / text

‹ back to catalog

STARLINK-35581

NORAD 66479 · 2025-262Z

PAYLOAD ACTIVE UNKNOWN

§ Identity

Operator
Country
US
Launch date
2025-11-15
Launch site
AFETR
Launch vehicle
Mass (kg)
RCS (m²)

Purposes: comms

External: N2YO · Heavens-Above · Gunter

§ Orbital elements

Epoch: 2026-09-20T08:42:14.096160Z

Period
94.27 min
Inclination
42.9988°
Eccentricity
0.0001013
Mean motion
15.27589502 rev/d
Perigee alt
482.3 km
Apogee alt
483.7 km
Semi-major
6,861.2 km
B*
4.0055e-4
RAAN
276.3611°
Arg perigee
207.5508°
Mean anomaly
152.5290°
Rev number
4,868

§ Raw data

STARLINK-355811 66479U 25262Z   26263.36266315  .00010780  00000+0  40055-3 0  99922 66479  42.9988 276.3611 0001013 207.5508 152.5290 15.27589502 48686

JSON: /api/v1/satellites/66479 · /tle

For live sub-satellite position, see the globe view (requires WebGL).

§ Visibility from observer

Set your observer location to see the next 7 days of passes ≥ 10°. The values pass through the URL so the page stays shareable.

No JS? Fill the form by hand. The geolocation button needs JavaScript.